Wind_Speed
14 14 14 14 14 14 14 14 14 14 14 14 14 14 14 14 14 13 13 14 14 14 14 14 14 13 13 12 12 12 12 12 11 11 11 11 11 11 11 11 12 12 12
16 16 16 16 16 16 16 16 15 15 15 15 15 16 16 16 15 15 15 15 15 16 16 16 16 15 15 14 14 14 13 13 13 13 13 12 12 13 13 13 13 13 13
18 18 18 18 18 18 18 17 17 17 17 17 17 17 17 17 17 17 17 17 17 17 18 18 17 17 17 16 16 15 15 15 15 15 14 14 14 14 15 15 15 15 15
21 21 20 20 19 19 19 19 19 19 19 19 19 19 19 19 19 19 18 19 19 19 19 19 19 19 19 18 18 17 17 17 17 16 16 15 15 16 16 16 16 16 16
22 22 22 22 21 21 21 21 21 21 21 21 21 21 21 21 21 21 21 20 20 21 21 21 21 20 20 20 20 19 19 18 18 18 18 17 17 17 18 18 18 18 18
24 24 24 24 23 23 23 23 23 23 23 23 23 23 23 23 23 23 23 22 22 23 23 22 22 22 21 21 20 20 20 20 19 19 19 19 19 19 19 19 19 20 20
26 26 26 25 25 25 25 25 25 25 25 25 25 25 25 25 25 25 25 25 24 24 24 24 24 24 23 22 22 21 21 21 21 20 20 20 20 21 21 21 21 21 21
27 27 27 27 27 27 27 27 27 27 27 27 27 27 27 27 28 28 28 27 27 27 27 26 25 25 25 25 24 24 23 23 23 23 22 22 22 22 22 23 23 23 23
29 29 29 29 29 29 29 29 29 30 30 29 29 29 29 29 30 30 30 29 29 29 29 28 27 26 26 26 26 26 25 25 25 25 24 24 24 24 24 25 25 25 25
31 30 31 31 31 31 31 32 32 32 31 31 31 31 31 31 31 31 31 30 30 30 30 30 29 28 28 28 28 28 28 28 27 27 27 26 26 26 26 27 27 27 27
33 33 33 33 33 34 34 34 34 34 34 33 33 33 33 32 32 32 32 32 32 32 32 31 31 30 30 30 29 29 30 30 30 29 29 29 29 29 29 29 29 29 30
35 35 35 35 36 36 36 36 36 36 36 36 36 35 34 34 34 34 33 33 33 33 33 33 32 32 32 31 31 31 31 31 32 31 31 31 31 31 31 32 32 32 32
36 36 36 37 37 37 37 37 38 38 38 37 38 37 36 36 36 36 35 35 34 34 34 34 34 34 34 33 33 33 33 33 34 34 33 33 34 33 33 33 34 34 34
37 38 38 38 38 38 38 38 39 39 39 38 38 38 37 37 37 37 37 36 36 36 35 35 35 35 35 35 35 35 35 35 35 36 35 36 36 36 36 36 36 36 36
38 39 39 39 39 39 39 39 40 40 40 39 39 39 38 38 37 37 37 37 37 37 36 36 35 36 35 36 36 36 36 36 37 37 38 38 38 38 38 38 38 37 37
39 39 39 39 40 40 40 40 40 40 41 40 39 39 39 39 38 37 38 38 37 36 36 36 36 36 36 36 37 38 38 38 39 39 39 39 39 39 39 39 39 38 37
39 39 39 39 40 40 40 40 40 40 40 40 39 39 39 39 39 38 38 38 37 37 37 37 37 37 37 37 38 39 39 39 39 39 40 40 40 40 40 40 39 38 38
39 38 38 38 39 40 40 40 40 40 40 40 39 39 39 39 39 39 38 38 38 38 38 37 37 38 37 38 38 39 40 40 41 40 40 40 40 40 39 39 39 39 39
38 37 37 37 37 37 38 39 39 40 39 39 40 40 39 38 39 39 39 39 39 39 39 38 38 38 38 39 39 39 40 41 40 41 40 39 39 39 38 38 39 38 38
37 36 36 36 36 36 37 38 38 39 40 40 40 40 39 39 39 40 40 40 40 40 40 40 40 39 40 40 39 40 40 40 39 40 40 39 39 38 38 38 38 38 38
37 36 36 37 37 37 37 38 38 39 40 40 41 41 41 40 39 40 41 41 40 40 41 41 40 40 41 40 39 39 40 40 40 40 40 40 40 39 39 39 38 38 38
36 36 37 37 37 38 38 39 39 40 40 41 41 42 43 41 40 41 42 42 41 41 40 40 41 40 41 40 40 40 41 40 40 40 40 40 40 40 39 39 39 39 39
36 36 36 36 37 38 38 38 39 39 40 41 41 41 42 41 42 41 41 42 42 42 41 41 41 41 41 41 41 41 41 41 41 40 41 41 41 41 40 40 40 40 40
34 34 35 36 36 37 37 37 38 38 38 39 40 41 42 42 41 40 41 42 41 41 42 42 42 43 42 41 41 41 41 41 42 42 42 42 42 42 41 41 40 39 39
33 33 34 34 35 35 36 36 35 36 36 37 37 38 39 39 39 39 40 41 41 41 41 42 43 43 42 41 41 40 40 41 42 42 42 42 42 42 42 42 41 40 38
31 31 32 32 32 33 33 34 34 34 35 36 36 37 37 38 38 38 39 39 40 40 40 42 43 43 41 41 41 40 39 39 40 41 41 42 42 42 42 41 40 39 38
Wind_Direction
255 255 254 253 253 254 256 259 260 261 263 264 264 261 261 263 264 264 266 266 264 264 265 265 264 263 264 264 263 264 264 264 265 266 269 269 269 271 268 269 272 275 278
257 256 256 255 256 256 257 259 260 261 262 264 265 263 263 264 265 265 265 266 265 264 265 264 264 263 263 265 264 263 264 264 265 266 268 269 270 270 270 271 274 276 279
258 258 257 257 257 257 258 259 260 262 262 263 264 265 264 264 265 266 265 266 266 265 265 264 263 264 264 265 265 265 264 264 264 265 267 269 270 271 272 273 274 276 278
258 258 258 258 258 258 259 261 262 263 264 264 264 264 265 265 266 266 266 267 267 266 266 264 263 263 264 264 264 264 263 263 263 264 266 267 270 271 272 274 274 275 277
257 257 257 257 258 258 260 262 264 265 266 266 266 266 266 266 266 266 266 267 267 267 266 264 262 262 263 264 263 263 263 262 263 264 266 268 270 272 273 275 276 276 276
256 256 257 258 258 259 260 262 263 265 266 266 266 266 267 267 267 267 267 267 267 267 265 264 262 261 261 262 262 262 262 262 263 264 265 268 271 272 273 275 275 277 276
256 256 257 258 260 261 262 262 262 264 265 265 266 267 267 268 268 269 268 268 267 266 266 263 262 261 259 260 262 263 262 262 263 264 266 268 271 271 272 274 276 278 278
257 257 257 258 260 261 262 263 264 264 264 265 266 267 267 268 269 269 269 268 268 267 266 264 262 260 258 258 260 262 262 262 263 263 265 268 270 271 272 274 276 277 279
257 257 257 258 260 262 264 265 265 266 265 265 266 267 268 268 268 268 268 267 266 266 265 263 261 259 258 257 258 261 262 262 263 263 264 266 269 271 272 273 275 276 278
258 259 259 260 261 262 264 265 265 266 267 267 267 268 268 268 268 268 267 266 266 265 264 263 260 259 258 258 259 260 261 262 263 263 264 266 267 269 271 273 274 276 277
260 260 261 261 262 263 264 265 265 265 267 268 267 268 268 268 268 268 267 266 265 265 264 263 261 259 258 258 258 259 261 262 263 263 264 266 267 268 270 272 273 274 276
261 261 262 263 264 265 265 265 265 265 266 267 267 267 268 267 267 267 267 267 266 265 264 262 261 259 258 258 258 259 261 262 264 265 266 268 268 269 271 272 273 274 276
260 261 262 263 264 265 265 266 266 266 266 266 267 267 267 266 266 266 266 266 266 266 265 263 261 259 259 258 259 260 261 262 264 265 266 268 269 270 271 272 273 274 276
262 262 263 264 265 265 266 266 266 266 265 265 266 267 267 265 265 265 266 266 266 266 265 264 262 261 259 259 260 261 262 263 265 265 266 267 268 270 271 272 273 274 275
264 264 264 264 265 265 265 266 266 265 264 265 266 266 266 264 264 265 265 265 265 265 265 264 262 261 260 260 260 262 263 264 265 266 266 267 268 269 271 271 273 273 274
264 265 264 264 264 264 264 265 265 264 264 265 265 264 264 264 264 265 265 265 264 264 264 263 261 261 261 262 262 263 263 264 265 266 267 267 268 269 271 271 272 272 273
265 265 265 264 264 264 264 264 263 264 265 264 263 263 263 264 265 265 266 265 264 264 264 263 261 261 262 264 264 264 263 264 264 266 266 267 268 269 270 271 271 272 272
264 265 264 264 264 264 264 264 263 264 265 265 263 262 262 264 264 264 265 265 265 264 264 263 261 261 263 264 264 264 264 264 264 266 267 267 269 269 270 270 271 272 272
264 264 264 265 266 266 265 265 264 264 265 264 262 260 261 262 263 264 264 265 265 264 264 263 262 262 264 264 265 265 265 265 266 266 266 267 268 269 270 270 271 272 272
265 263 263 265 266 267 267 266 265 266 266 264 262 260 261 262 263 262 262 263 264 264 264 262 263 264 265 265 266 266 266 266 266 266 265 266 268 269 270 270 271 271 272
264 263 264 265 266 267 267 267 266 267 266 265 263 261 261 263 263 263 261 262 263 263 262 262 263 265 265 266 266 266 265 265 265 265 265 266 267 269 270 270 270 270 271
265 264 266 267 268 269 268 268 268 267 266 266 264 263 262 264 263 262 261 262 262 262 261 263 264 265 265 266 267 267 266 264 263 264 265 266 267 268 270 270 269 270 270
265 266 268 269 269 270 270 269 269 268 268 267 265 265 263 264 264 263 262 262 261 261 262 264 264 265 266 267 268 267 266 263 264 264 266 266 267 268 270 271 270 270 271
267 267 269 269 269 270 270 269 269 269 269 268 266 265 263 263 264 263 262 262 262 262 262 264 265 267 267 267 267 267 266 265 264 264 266 267 268 268 269 270 269 271 271
268 268 269 271 271 271 270 268 268 269 269 269 267 265 264 264 265 264 264 262 262 263 265 265 265 267 267 266 267 266 266 266 266 265 266 266 268 269 267 267 269 270 270
269 269 270 271 271 272 272 268 269 270 270 270 268 266 266 265 265 265 264 263 263 263 265 265 265 266 265 265 266 266 266 266 267 268 269 269 268 268 267 267 268 268 268
Height
5849 5849 5849 5849 5849 5849 5849 5850 5850 5850 5850 5850 5850 5850 5850 5850 5850 5850 5850 5850 5849 5849 5849 5849 5849 5849 5848 5848 5848 5848 5848 5847 5847 5847 5847 5847 5847 5846 5846 5846 5845 5845 5845
5846 5846 5846 5846 5846 5846 5847 5847 5847 5847 5847 5847 5847 5847 5847 5847 5847 5847 5846 5846 5846 5846 5846 5846 5846 5846 5845 5845 5845 5845 5845 5845 5845 5845 5844 5844 5844 5844 5844 5843 5843 5842 5842
5842 5842 5842 5843 5843 5843 5843 5843 5844 5844 5844 5844 5843 5843 5843 5843 5843 5843 5843 5843 5843 5843 5843 5842 5842 5842 5842 5842 5842 5842 5842 5842 5842 5842 5841 5841 5841 5841 5841 5840 5840 5839 5839
5838 5838 5839 5839 5839 5839 5839 5840 5840 5840 5840 5840 5840 5840 5839 5839 5839 5839 5839 5839 5839 5839 5839 5838 5838 5839 5838 5838 5838 5838 5838 5838 5838 5838 5838 5838 5838 5837 5837 5837 5836 5836 5836
5834 5834 5835 5835 5835 5835 5835 5835 5835 5836 5836 5836 5835 5835 5835 5835 5835 5835 5834 5834 5834 5834 5834 5834 5834 5834 5834 5834 5834 5834 5834 5835 5835 5835 5834 5834 5834 5834 5834 5833 5833 5832 5832
5829 5830 5830 5830 5830 5830 5830 5830 5831 5831 5831 5831 5831 5831 5830 5830 5830 5830 5829 5829 5829 5829 5829 5829 5829 5829 5830 5830 5830 5830 5830 5830 5831 5831 5830 5830 5830 5830 5830 5829 5829 5828 5828
5824 5824 5825 5825 5825 5825 5825 5825 5825 5825 5825 5825 5825 5825 5825 5825 5824 5824 5824 5823 5823 5823 5823 5823 5824 5824 5824 5825 5825 5825 5825 5826 5826 5826 5826 5826 5826 5826 5825 5825 5825 5824 5823
5818 5819 5819 5819 5819 5819 5819 5819 5819 5819 5819 5819 5819 5819 5819 5819 5818 5818 5817 5817 5817 5817 5817 5817 5818 5818 5819 5819 5820 5820 5821 5821 5821 5821 5821 5821 5821 5821 5821 5820 5820 5819 5819
5812 5812 5812 5813 5813 5813 5813 5813 5813 5813 5813 5813 5813 5812 5812 5812 5811 5811 5810 5810 5810 5810 5810 5811 5811 5812 5813 5814 5814 5815 5815 5816 5816 5816 5816 5816 5816 5816 5816 5815 5814 5814 5813
5805 5805 5805 5805 5805 5806 5806 5806 5806 5806 5806 5806 5805 5805 5805 5805 5804 5804 5803 5803 5803 5803 5803 5804 5805 5806 5807 5807 5808 5809 5809 5810 5810 5810 5810 5810 5810 5810 5810 5809 5809 5808 5807
5797 5797 5797 5797 5798 5798 5798 5798 5798 5798 5798 5798 5797 5797 5797 5797 5796 5796 5796 5795 5795 5795 5795 5796 5797 5798 5799 5800 5801 5802 5802 5803 5803 5804 5804 5804 5804 5804 5803 5803 5803 5802 5801
5789 5789 5789 5789 5789 5789 5789 5789 5789 5789 5789 5789 5789 5788 5789 5788 5788 5788 5788 5788 5787 5787 5787 5788 5789 5790 5792 5793 5794 5794 5795 5796 5796 5797 5797 5797 5797 5797 5797 5796 5796 5795 5794
5781 5781 5781 5780 5780 5780 5780 5780 5780 5780 5780 5780 5780 5780 5780 5780 5780 5780 5780 5780 5779 5779 5779 5780 5781 5783 5784 5785 5786 5786 5787 5788 5789 5789 5789 5790 5789 5789 5789 5789 5788 5787 5787
5772 5772 5772 5771 5771 5771 5771 5770 5770 5770 5770 5771 5770 5770 5770 5771 5771 5771 5771 5771 5771 5771 5771 5772 5773 5774 5775 5776 5777 5778 5779 5780 5780 5781 5781 5781 5781 5781 5781 5780 5780 5779 5778
5763 5763 5762 5762 5761 5761 5761 5760 5760 5760 5760 5761 5761 5761 5761 5761 5762 5762 5762 5762 5762 5762 5763 5763 5764 5765 5766 5768 5769 5770 5770 5771 5772 5772 5772 5772 5772 5772 5772 5771 5771 5770 5769
5753 5753 5752 5751 5751 5751 5750 5750 5750 5750 5750 5751 5751 5751 5751 5752 5752 5753 5753 5753 5753 5753 5754 5754 5755 5757 5757 5758 5760 5760 5761 5762 5762 5762 5762 5763 5763 5762 5762 5762 5761 5761 5760
5743 5742 5742 5741 5741 5740 5740 5740 5740 5740 5740 5740 5740 5741 5741 5742 5743 5743 5743 5744 5744 5744 5745 5746 5747 5747 5748 5749 5750 5751 5751 5751 5751 5751 5752 5752 5752 5752 5752 5752 5751 5751 5750
5732 5732 5731 5731 5730 5730 5729 5729 5729 5729 5729 5729 5730 5731 5732 5732 5733 5734 5734 5734 5735 5735 5736 5737 5737 5738 5739 5740 5741 5741 5741 5741 5741 5741 5742 5742 5742 5742 5742 5741 5741 5741 5740
5722 5722 5722 5721 5720 5720 5719 5719 5719 5719 5719 5719 5719 5720 5721 5722 5723 5724 5724 5725 5725 5726 5727 5728 5728 5729 5730 5730 5730 5731 5731 5731 5731 5731 5731 5731 5731 5731 5732 5731 5731 5730 5730
5712 5712 5712 5712 5711 5710 5710 5709 5709 5709 5709 5709 5709 5710 5711 5712 5713 5713 5714 5715 5716 5717 5717 5718 5718 5719 5720 5720 5720 5720 5720 5720 5720 5720 5721 5721 5721 5722 5722 5722 5721 5721 5720
5703 5703 5703 5702 5702 5701 5700 5700 5700 5700 5699 5699 5699 5700 5700 5701 5702 5703 5704 5705 5706 5707 5708 5708 5709 5710 5710 5709 5709 5710 5710 5710 5710 5710 5710 5711 5711 5712 5712 5711 5711 5710 5710
5694 5693 5693 5693 5692 5692 5691 5690 5690 5689 5689 5688 5689 5689 5690 5691 5692 5693 5694 5695 5696 5697 5698 5699 5700 5700 5700 5699 5699 5698 5699 5700 5700 5700 5700 5701 5701 5701 5701 5701 5701 5700 5700
5684 5684 5684 5683 5682 5681 5680 5680 5679 5679 5679 5679 5679 5679 5680 5680 5681 5682 5684 5685 5686 5687 5688 5689 5689 5690 5690 5689 5688 5688 5688 5689 5690 5691 5691 5691 5691 5691 5690 5690 5690 5689 5689
5675 5675 5675 5674 5673 5671 5670 5669 5669 5669 5669 5669 5668 5668 5669 5670 5671 5672 5674 5675 5676 5677 5678 5678 5679 5679 5679 5678 5677 5677 5678 5679 5679 5681 5681 5680 5680 5680 5679 5679 5678 5678 5678
5667 5666 5665 5664 5663 5662 5660 5659 5659 5659 5658 5658 5658 5658 5659 5660 5661 5662 5663 5664 5665 5666 5667 5667 5668 5668 5668 5668 5667 5667 5668 5668 5668 5669 5670 5669 5669 5668 5668 5668 5667 5667 5667
5658 5657 5657 5655 5654 5652 5651 5650 5649 5649 5649 5649 5649 5649 5650 5650 5651 5652 5652 5653 5655 5655 5656 5657 5657 5657 5657 5657 5657 5657 5657 5658 5658 5658 5658 5658 5658 5658 5657 5657 5657 5657 5657